Gainesville, FL

4:34 AM EDT on October 14, 2019 (GMT -0400)
Gainesville Regional

Weather History for KGNV - September, 2019

Change the Weather History Date:

Sunday, September 22, 2019

  Actual Average Record
Temperature  
Mean Temperature 77 °F 77 °F  
Max Temperature 88 °F 87 °F 96 °F (1925)
Min Temperature 65 °F 68 °F 48 °F (1897)
Degree Days  
Heating Degree Days 0 0  
Month to date heating degree days 0 0  
Since 1 July heating degree days 0 0  
Cooling Degree Days 12 12  
Month to date cooling degree days 359 306  
Year to date cooling degree days 2900 2250  
Growing Degree Days 26 (Base 50)    
Moisture  
Dew Point 64 °F    
Average Humidity 68    
Maximum Humidity 93    
Minimum Humidity 43    
Precipitation  
Precipitation 0.00 in 0.13 in 1.87 in (2001)
Month to date precipitation 0.93 3.37  
Year to date precipitation 38.24 38.94  
Snow  
Snow 0.00 in 0.00 in 0.00 in ()
Month to date snowfall 0.0 0.0  
Since 1 July snowfall 0.0 0.0  
Since 1 September snowfall 0.0 0.0  
Snow Depth 0.00 in    
Sea Level Pressure  
Sea Level Pressure 30.14 in    
Wind  
Wind Speed 5 mph (NE)    
Max Wind Speed 18 mph    
Max Gust Speed 23 mph    
Visibility 10 miles    
Events      
T = Trace of Precipitation, MM = Missing Value Source: NWS Daily Summary

Daily Weather History Graph

Daily Weather History Graph

Search for Another Location

Airport or City:

Astronomy

Sep. 22, 2019 Rise Set
Actual Time 7:17 AM EDT 7:25 PM EDT
Civil Twilight 6:53 AM EDT 7:49 PM EDT
Nautical Twilight 6:25 AM EDT 8:17 PM EDT
Astronomical Twilight 5:57 AM EDT 8:45 PM EDT
Moon 12:32 AM EDT (9/22) 2:52 PM EDT (9/22)
Length of Visible Light 12h 56m
Length of Day
12h 08m
Last Quarter, 44% of the Moon is Illuminated
Sep 22
Last Quarter
Sep 28
New
Oct 5
First Quarter
Oct 13
Full
Oct 21
Last Quarter

Hourly Weather History & Observations

Time (EDT) Temp. Heat Index Dew Point Humidity Pressure Visibility Wind Dir Wind Speed Gust Speed Precip Events Conditions
12:53 AM 70.0 °F - 64.9 °F 84% 30.18 in 10.0 mi North 4.6 mph - N/A   Clear
1:53 AM 69.1 °F - 64.0 °F 84% 30.17 in 10.0 mi NNE 3.5 mph - N/A   Clear
2:53 AM 68.0 °F - 64.0 °F 87% 30.16 in 10.0 mi NNE 3.5 mph - N/A   Scattered Clouds
3:53 AM 66.9 °F - 64.9 °F 93% 30.15 in 10.0 mi Calm Calm - N/A   Overcast
4:53 AM 68.0 °F - 64.0 °F 87% 30.14 in 10.0 mi North 3.5 mph - N/A   Mostly Cloudy
5:53 AM 68.0 °F - 64.0 °F 87% 30.15 in 10.0 mi Calm Calm - N/A   Overcast
6:53 AM 69.1 °F - 64.0 °F 84% 30.16 in 10.0 mi Calm Calm - N/A   Mostly Cloudy
7:53 AM 68.0 °F - 64.0 °F 87% 30.17 in 10.0 mi Calm Calm - N/A   Scattered Clouds
8:53 AM 75.0 °F - 66.0 °F 73% 30.17 in 10.0 mi NNE 4.6 mph - N/A   Clear
9:53 AM 79.0 °F - 66.9 °F 66% 30.17 in 10.0 mi ENE 5.8 mph - N/A   Partly Cloudy
10:53 AM 81.0 °F 83.3 °F 66.9 °F 62% 30.17 in 10.0 mi East 9.2 mph 17.3 mph N/A   Scattered Clouds
11:53 AM 82.0 °F 84.1 °F 66.0 °F 58% 30.17 in 10.0 mi ENE 11.5 mph - N/A   Mostly Cloudy
12:53 PM 87.1 °F 88.9 °F 64.9 °F 48% 30.16 in 10.0 mi NE 11.5 mph - N/A   Mostly Cloudy
1:53 PM 86.0 °F 86.8 °F 63.0 °F 46% 30.14 in 10.0 mi ENE 15.0 mph 18.4 mph N/A   Mostly Cloudy
2:53 PM 87.1 °F 87.8 °F 63.0 °F 44% 30.11 in 10.0 mi ENE 16.1 mph - N/A   Mostly Cloudy
3:53 PM 87.1 °F 87.8 °F 63.0 °F 44% 30.09 in 10.0 mi ENE 11.5 mph 21.9 mph N/A   Partly Cloudy
4:53 PM 84.9 °F 85.9 °F 63.0 °F 48% 30.09 in 10.0 mi East 9.2 mph - N/A   Mostly Cloudy
5:53 PM 82.0 °F 83.1 °F 63.0 °F 52% 30.10 in 10.0 mi ENE 8.1 mph - N/A   Mostly Cloudy
6:53 PM 81.0 °F 82.2 °F 63.0 °F 54% 30.10 in 10.0 mi East 5.8 mph - N/A   Partly Cloudy
7:53 PM 75.0 °F - 64.0 °F 69% 30.12 in 10.0 mi ENE 4.6 mph - N/A   Clear
8:53 PM 71.1 °F - 64.0 °F 78% 30.12 in 10.0 mi NE 4.6 mph - N/A   Clear
9:53 PM 69.1 °F - 64.0 °F 84% 30.14 in 10.0 mi Calm Calm - N/A   Clear
10:53 PM 66.9 °F - 64.0 °F 90% 30.14 in 10.0 mi Calm Calm - N/A   Clear
11:53 PM 66.0 °F - 63.0 °F 90% 30.13 in 10.0 mi Calm Calm - N/A   Clear